Radiation Dose at Monitoring Post of Fukushima Daini Nuclear Power Station
Date,Time,MP-1(microSv/h),MP-2(microSv/h),MP-3(microSv/h),MP-4(microSv/h),MP-5(microSv/h),MP-6(microSv/h),MP-7(microSv/h),Wind Direction,Wind Velocity(m/s),Rain
2015/12/28,00:00,0.457,0.268,0.481,0.438,0.418,0.221,0.194,west,4.4,No
2015/12/28,00:10,0.457,0.268,0.481,0.436,0.418,0.220,0.194,west-northwest,5.9,No
2015/12/28,00:20,0.457,0.269,0.481,0.438,0.420,0.219,0.194,northwest,5.9,No
2015/12/28,00:30,0.456,0.270,0.481,0.439,0.417,0.220,0.194,west-northwest,3.8,No
2015/12/28,00:40,0.456,0.268,0.481,0.439,0.420,0.220,0.193,northwest,4.5,No
2015/12/28,00:50,0.457,0.268,0.481,0.438,0.419,0.221,0.194,northwest,5.8,No
2015/12/28,01:00,0.456,0.268,0.482,0.437,0.419,0.220,0.193,northwest,4.4,No
2015/12/28,01:10,0.456,0.268,0.480,0.437,0.417,0.220,0.194,northwest,4.5,No
2015/12/28,01:20,0.457,0.269,0.479,0.437,0.417,0.221,0.194,northwest,3.9,No
2015/12/28,01:30,0.458,0.269,0.480,0.439,0.418,0.222,0.193,north-northwest,4.8,No
2015/12/28,01:40,0.455,0.269,0.481,0.438,0.419,0.219,0.193,west-northwest,2.6,No
2015/12/28,01:50,0.457,0.268,0.482,0.438,0.419,0.220,0.192,north-northwest,3.4,No
2015/12/28,02:00,0.456,0.268,0.480,0.437,0.419,0.220,0.194,north-northwest,3.2,No
2015/12/28,02:10,0.459,0.268,0.480,0.438,0.419,0.220,0.193,north-northwest,3.5,No
2015/12/28,02:20,0.456,0.269,0.480,0.438,0.419,0.221,0.193,west-northwest,4.2,No
2015/12/28,02:30,0.458,0.268,0.481,0.439,0.418,0.221,0.193,northwest,2.3,No
2015/12/28,02:40,0.457,0.268,0.482,0.437,0.419,0.220,0.194,north,3.2,No
2015/12/28,02:50,0.458,0.268,0.482,0.438,0.419,0.221,0.194,north-northwest,1.6,No
2015/12/28,03:00,0.457,0.267,0.480,0.437,0.418,0.221,0.192,north,1.1,No
2015/12/28,03:10,0.457,0.268,0.479,0.437,0.418,0.219,0.193,north,2.0,No
2015/12/28,03:20,0.455,0.270,0.482,0.439,0.417,0.221,0.194,north,3.1,No
2015/12/28,03:30,0.457,0.268,0.482,0.437,0.418,0.221,0.194,north,2.8,No
2015/12/28,03:40,0.457,0.269,0.483,0.438,0.418,0.221,0.193,north-northwest,3.5,No
2015/12/28,03:50,0.457,0.268,0.482,0.436,0.417,0.221,0.194,north-northwest,2.3,No
2015/12/28,04:00,0.457,0.268,0.481,0.438,0.418,0.221,0.193,west-northwest,2.9,No
2015/12/28,04:10,0.458,0.269,0.482,0.439,0.419,0.219,0.193,northwest,2.7,No
2015/12/28,04:20,0.458,0.270,0.479,0.439,0.417,0.220,0.192,north-northwest,2.2,No
2015/12/28,04:30,0.457,0.269,0.483,0.437,0.417,0.221,0.193,north-northwest,2.5,No
2015/12/28,04:40,0.456,0.269,0.482,0.438,0.418,0.220,0.193,northwest,2.7,No
2015/12/28,04:50,0.457,0.268,0.482,0.438,0.420,0.220,0.193,north-northwest,1.7,No
2015/12/28,05:00,0.457,0.269,0.480,0.437,0.418,0.220,0.192,west-northwest,3.0,No
2015/12/28,05:10,0.457,0.269,0.480,0.438,0.418,0.221,0.192,north-northwest,1.6,No
2015/12/28,05:20,0.457,0.269,0.481,0.436,0.417,0.221,0.193,northwest,1.8,No
2015/12/28,05:30,0.457,0.268,0.481,0.437,0.416,0.219,0.193,west-northwest,3.0,No
2015/12/28,05:40,0.456,0.268,0.481,0.437,0.418,0.220,0.194,west-northwest,5.1,No
2015/12/28,05:50,0.457,0.270,0.480,0.437,0.417,0.220,0.193,northwest,4.2,No
2015/12/28,06:00,0.456,0.267,0.480,0.438,0.419,0.221,0.193,northwest,2.8,No
2015/12/28,06:10,0.456,0.268,0.481,0.437,0.418,0.220,0.193,west-northwest,2.8,No
2015/12/28,06:20,0.456,0.268,0.481,0.437,0.419,0.220,0.193,west-northwest,3.4,No
2015/12/28,06:30,0.455,0.268,0.482,0.436,0.417,0.220,0.193,west-northwest,7.0,No
2015/12/28,06:40,0.457,0.268,0.481,0.437,0.417,0.220,0.192,west-northwest,6.1,No
2015/12/28,06:50,0.457,0.268,0.481,0.437,0.418,0.220,0.193,northwest,2.4,No
2015/12/28,07:00,0.457,0.267,0.482,0.435,0.419,0.221,0.193,west-northwest,1.7,No
2015/12/28,07:10,0.457,0.268,0.483,0.436,0.417,0.219,0.193,west-southwest,3.0,No
2015/12/28,07:20,0.456,0.267,0.482,0.436,0.418,0.221,0.192,northwest,2.1,No
2015/12/28,07:30,0.457,0.268,0.480,0.436,0.417,0.220,0.192,west,1.3,No
2015/12/28,07:40,0.456,0.268,0.480,0.437,0.418,0.220,0.193,west,1.3,No
2015/12/28,07:50,0.456,0.268,0.481,0.437,0.419,0.221,0.193,west-southwest,0.6,No
2015/12/28,08:00,0.455,0.269,0.479,0.436,0.419,0.220,0.192,west,2.2,No
2015/12/28,08:10,0.455,0.267,0.481,0.435,0.416,0.220,0.192,west-northwest,5.0,No
2015/12/28,08:20,0.455,0.269,0.479,0.438,0.415,0.220,0.192,west-southwest,4.1,No
2015/12/28,08:30,0.456,0.268,0.481,0.436,0.417,0.219,0.193,west-southwest,6.7,No
2015/12/28,08:40,0.457,0.269,0.482,0.436,0.418,0.220,0.192,west-southwest,4.9,No
2015/12/28,08:50,0.456,0.267,0.481,0.436,0.418,0.219,0.191,west-northwest,2.5,No
2015/12/28,09:00,0.456,0.269,0.480,0.435,0.418,0.219,0.193,west-northwest,1.9,No
2015/12/28,09:10,0.456,0.267,0.480,0.435,0.416,0.219,0.192,west-northwest,2.6,No
2015/12/28,09:20,0.456,0.267,0.483,0.437,0.418,0.220,0.192,northwest,2.5,No
2015/12/28,09:30,0.457,0.267,0.480,0.434,0.418,0.219,0.192,northwest,1.5,No
2015/12/28,09:40,0.457,0.266,0.478,0.436,0.416,0.221,0.192,northwest,2.4,No
2015/12/28,09:50,0.458,0.267,0.479,0.437,0.418,0.220,0.192,northwest,3.4,No
2015/12/28,10:00,0.457,0.267,0.480,0.436,0.418,0.220,0.192,north-northwest,2.2,No
2015/12/28,10:10,0.457,0.267,0.481,0.437,0.416,0.221,0.192,west-southwest,1.1,No
2015/12/28,10:20,0.455,0.267,0.480,0.436,0.418,0.220,0.192,west-southwest,3.5,No
2015/12/28,10:30,0.457,0.268,0.481,0.435,0.417,0.220,0.192,west-northwest,1.3,No
2015/12/28,10:40,0.455,0.268,0.480,0.437,0.417,0.220,0.193,west-northwest,2.5,No
2015/12/28,10:50,0.457,0.267,0.479,0.434,0.420,0.221,0.192,west,6.1,No
2015/12/28,11:00,0.457,0.268,0.480,0.438,0.417,0.219,0.192,west-northwest,7.3,No
2015/12/28,11:10,0.455,0.266,0.479,0.437,0.420,0.221,0.194,west,8.7,No
2015/12/28,11:20,0.458,0.268,0.480,0.438,0.419,0.222,0.192,west-northwest,10.0,No
2015/12/28,11:30,0.457,0.268,0.482,0.438,0.418,0.220,0.194,west,9.2,No
2015/12/28,11:40,0.458,0.267,0.481,0.437,0.421,0.220,0.194,west,8.2,No
2015/12/28,11:50,0.461,0.268,0.478,0.440,0.418,0.220,0.194,west-northwest,7.1,No
2015/12/28,12:00,0.458,0.268,0.482,0.438,0.419,0.221,0.194,west-southwest,6.4,No
2015/12/28,12:10,0.458,0.268,0.479,0.437,0.419,0.221,0.194,west-northwest,5.1,No
2015/12/28,12:20,0.458,0.269,0.480,0.439,0.419,0.220,0.193,west-northwest,7.3,No
2015/12/28,12:30,0.456,0.269,0.480,0.438,0.419,0.220,0.194,west-northwest,5.7,No
2015/12/28,12:40,0.459,0.270,0.481,0.438,0.421,0.221,0.193,west-northwest,4.1,No
2015/12/28,12:50,0.461,0.269,0.481,0.441,0.419,0.220,0.191,west-northwest,4.9,No
2015/12/28,13:00,0.460,0.270,0.482,0.439,0.420,0.221,0.193,northwest,5.0,No
2015/12/28,13:10,0.460,0.268,0.480,0.437,0.420,0.221,0.193,west,5.2,No
2015/12/28,13:20,0.459,0.267,0.480,0.438,0.419,0.220,0.193,west,5.4,No
2015/12/28,13:30,0.457,0.269,0.479,0.435,0.420,0.222,0.193,west,7.7,No
2015/12/28,13:40,0.458,0.268,0.478,0.438,0.422,0.220,0.193,west,6.1,No
2015/12/28,13:50,0.459,0.268,0.482,0.437,0.421,0.221,0.193,west-northwest,4.7,No
2015/12/28,14:00,0.459,0.268,0.478,0.438,0.419,0.220,0.193,northwest,4.1,No
2015/12/28,14:10,0.459,0.266,0.482,0.437,0.421,0.222,0.192,west-northwest,6.4,No
2015/12/28,14:20,0.461,0.269,0.482,0.436,0.419,0.221,0.194,west-northwest,5.3,No
2015/12/28,14:30,0.459,0.269,0.480,0.441,0.419,0.220,0.192,west-northwest,3.7,No
2015/12/28,14:40,0.459,0.268,0.483,0.437,0.422,0.220,0.194,west-northwest,5.5,No
2015/12/28,14:50,0.461,0.268,0.482,0.440,0.420,0.221,0.193,west,4.8,No
2015/12/28,15:00,0.460,0.270,0.479,0.438,0.420,0.220,0.194,west,5.5,No
2015/12/28,15:10,0.459,0.269,0.484,0.438,0.422,0.221,0.194,west,8.7,No
2015/12/28,15:20,0.460,0.270,0.480,0.440,0.420,0.221,0.193,west-southwest,7.3,No
2015/12/28,15:30,0.460,0.270,0.481,0.440,0.419,0.222,0.194,west,4.5,No
2015/12/28,15:40,0.459,0.269,0.484,0.438,0.420,0.220,0.194,west-northwest,3.9,No
2015/12/28,15:50,0.459,0.269,0.480,0.439,0.420,0.220,0.194,west,9.5,No
2015/12/28,16:00,0.459,0.268,0.481,0.440,0.419,0.221,0.193,west,7.0,No
2015/12/28,16:10,0.459,0.269,0.482,0.439,0.420,0.221,0.193,west-northwest,5.7,No
2015/12/28,16:20,0.460,0.268,0.484,0.440,0.420,0.221,0.193,west-northwest,4.3,No
2015/12/28,16:30,0.460,0.270,0.481,0.439,0.421,0.220,0.193,west-northwest,4.2,No
2015/12/28,16:40,0.459,0.269,0.482,0.437,0.419,0.221,0.194,west-northwest,4.8,No
2015/12/28,16:50,0.459,0.269,0.482,0.439,0.420,0.221,0.193,west-northwest,5.2,No
2015/12/28,17:00,0.460,0.270,0.481,0.440,0.420,0.221,0.193,west-northwest,5.3,No
2015/12/28,17:10,0.459,0.268,0.480,0.440,0.420,0.221,0.193,west,3.5,No
2015/12/28,17:20,0.461,0.269,0.482,0.439,0.418,0.222,0.194,west-northwest,3.3,No
2015/12/28,17:30,0.458,0.270,0.482,0.439,0.420,0.222,0.193,west-northwest,3.8,No
2015/12/28,17:40,0.459,0.269,0.481,0.440,0.421,0.221,0.193,northwest,1.4,No
2015/12/28,17:50,0.459,0.269,0.481,0.440,0.419,0.221,0.193,north,0.8,No
2015/12/28,18:00,0.458,0.268,0.482,0.438,0.418,0.222,0.193,-,CALM,No
2015/12/28,18:10,0.459,0.269,0.482,0.440,0.419,0.222,0.193,west-northwest,1.6,No
2015/12/28,18:20,0.458,0.269,0.481,0.439,0.419,0.221,0.193,west,3.9,No
2015/12/28,18:30,0.459,0.269,0.482,0.441,0.419,0.222,0.194,west-northwest,6.0,No
2015/12/28,18:40,0.458,0.269,0.483,0.438,0.419,0.221,0.193,west,6.6,No
2015/12/28,18:50,0.458,0.269,0.482,0.438,0.419,0.222,0.193,west,5.9,No
2015/12/28,19:00,0.458,0.269,0.481,0.440,0.420,0.221,0.193,west-northwest,5.1,No
2015/12/28,19:10,0.458,0.269,0.483,0.440,0.419,0.222,0.194,west,3.4,No
2015/12/28,19:20,0.458,0.267,0.483,0.436,0.418,0.222,0.194,west-northwest,3.1,No
2015/12/28,19:30,0.458,0.269,0.482,0.439,0.420,0.221,0.193,west-northwest,2.2,No
2015/12/28,19:40,0.459,0.268,0.481,0.441,0.419,0.222,0.193,north-northwest,3.0,No
2015/12/28,19:50,0.457,0.268,0.482,0.440,0.419,0.221,0.193,north-northwest,3.8,No
2015/12/28,20:00,0.457,0.269,0.483,0.437,0.420,0.221,0.193,north-northwest,3.7,No
2015/12/28,20:10,0.458,0.269,0.481,0.438,0.417,0.222,0.194,northwest,3.7,No
2015/12/28,20:20,0.458,0.268,0.483,0.440,0.417,0.222,0.194,northwest,0.8,No
2015/12/28,20:30,0.458,0.268,0.484,0.439,0.421,0.221,0.193,west-northwest,1.1,No
2015/12/28,20:40,0.458,0.270,0.483,0.439,0.420,0.221,0.193,northwest,1.2,No
2015/12/28,20:50,0.458,0.269,0.482,0.439,0.418,0.222,0.194,west-northwest,3.3,No
2015/12/28,21:00,0.459,0.269,0.483,0.440,0.418,0.221,0.194,west-northwest,4.2,No
2015/12/28,21:10,0.457,0.269,0.482,0.441,0.420,0.221,0.194,northwest,2.0,No
2015/12/28,21:20,0.458,0.269,0.482,0.439,0.419,0.221,0.193,northwest,0.8,No
2015/12/28,21:30,0.456,0.269,0.482,0.438,0.419,0.221,0.193,north,1.0,No
2015/12/28,21:40,0.458,0.269,0.483,0.438,0.420,0.222,0.194,south,0.6,No
2015/12/28,21:50,0.458,0.269,0.484,0.440,0.420,0.221,0.194,south-southeast,0.8,No
2015/12/28,22:00,0.458,0.269,0.482,0.441,0.420,0.221,0.194,south-southeast,0.9,No
2015/12/28,22:10,0.456,0.269,0.481,0.440,0.420,0.222,0.194,north-northeast,1.7,No
2015/12/28,22:20,0.458,0.268,0.483,0.439,0.420,0.221,0.195,north-northwest,1.7,No
2015/12/28,22:30,0.459,0.268,0.482,0.439,0.419,0.222,0.194,-,CALM,No
2015/12/28,22:40,0.457,0.269,0.482,0.440,0.420,0.222,0.194,-,CALM,No
2015/12/28,22:50,0.458,0.269,0.482,0.439,0.418,0.221,0.195,-,CALM,No
2015/12/28,23:00,0.457,0.268,0.482,0.439,0.421,0.221,0.194,west,0.7,No
2015/12/28,23:10,0.457,0.269,0.481,0.440,0.420,0.222,0.194,northwest,3.5,No
2015/12/28,23:20,0.458,0.269,0.482,0.440,0.419,0.221,0.195,northwest,5.6,No
2015/12/28,23:30,0.458,0.269,0.480,0.440,0.418,0.220,0.194,west-northwest,4.5,No
2015/12/28,23:40,0.457,0.269,0.482,0.439,0.417,0.222,0.194,west,5.3,No
2015/12/28,23:50,0.457,0.269,0.481,0.439,0.421,0.221,0.194,west-northwest,5.7,No
